Time,TemperatureF,DewpointF,PressureIn,WindDirection,WindDirectionDegrees,WindSpeedMPH,WindSpeedGustMPH,Humidity,HourlyPrecipIn,Conditions,Clouds,dailyrainin,SoftwareType,DateUTC
2013-08-20 00:01:00,65.6,61.9,30.03,West,260,0.0,0.0,88,0.00,,,0.00,Wunderground v.1.15,2013-08-20 04:01:00,
2013-08-20 00:02:00,65.5,61.9,30.03,WSW,258,0.0,0.0,88,0.00,,,0.00,Wunderground v.1.15,2013-08-20 04:02:00,
2013-08-20 00:06:00,65.5,61.9,30.03,West,260,0.0,0.0,88,0.00,,,0.00,Wunderground v.1.15,2013-08-20 04:06:00,
2013-08-20 00:07:00,65.5,61.9,30.03,West,260,0.0,0.0,88,0.00,,,0.00,Wunderground v.1.15,2013-08-20 04:07:00,
2013-08-20 00:09:00,65.5,61.9,30.03,WSW,253,0.0,0.0,88,0.00,,,0.00,Wunderground v.1.15,2013-08-20 04:09:00,
2013-08-20 00:17:00,65.3,61.7,30.03,West,261,0.0,0.0,88,0.00,,,0.00,Wunderground v.1.15,2013-08-20 04:17:00,
2013-08-20 00:22:00,65.2,61.6,30.03,West,260,0.0,0.0,88,0.00,,,0.00,Wunderground v.1.15,2013-08-20 04:22:00,
2013-08-20 00:28:00,65.0,61.4,30.03,West,260,0.0,0.0,88,0.00,,,0.00,Wunderground v.1.15,2013-08-20 04:28:00,
2013-08-20 00:36:00,64.8,61.2,30.03,WSW,251,0.0,0.0,88,0.00,,,0.00,Wunderground v.1.15,2013-08-20 04:36:00,
2013-08-20 00:42:00,64.7,61.1,30.03,WSW,251,0.0,0.0,88,0.00,,,0.00,Wunderground v.1.15,2013-08-20 04:42:00,
2013-08-20 00:48:00,64.5,61.2,30.03,WSW,253,0.0,0.0,89,0.00,,,0.00,Wunderground v.1.15,2013-08-20 04:48:00,
2013-08-20 00:55:00,64.2,60.9,30.03,West,260,0.0,0.0,89,0.00,,,0.00,Wunderground v.1.15,2013-08-20 04:55:00,
2013-08-20 01:00:00,64.0,60.7,30.03,WSW,251,0.0,0.0,89,0.00,,,0.00,Wunderground v.1.15,2013-08-20 05:00:00,
2013-08-20 01:08:00,63.9,60.6,30.03,West,260,0.0,0.0,89,0.00,,,0.00,Wunderground v.1.15,2013-08-20 05:08:00,
2013-08-20 01:15:00,63.9,60.6,30.03,West,260,0.0,0.0,89,0.00,,,0.00,Wunderground v.1.15,2013-08-20 05:15:00,
2013-08-20 01:20:00,63.7,60.4,30.03,West,260,0.0,0.0,89,0.00,,,0.00,Wunderground v.1.15,2013-08-20 05:20:00,
2013-08-20 01:27:00,63.7,60.4,30.03,West,260,0.0,0.0,89,0.00,,,0.00,Wunderground v.1.15,2013-08-20 05:27:00,
2013-08-20 01:34:00,63.5,60.2,30.03,West,260,0.0,0.0,89,0.00,,,0.00,Wunderground v.1.15,2013-08-20 05:34:00,
2013-08-20 01:40:00,63.5,60.2,30.03,West,260,0.0,0.0,89,0.00,,,0.00,Wunderground v.1.15,2013-08-20 05:40:00,
2013-08-20 01:47:00,63.4,60.1,30.03,WSW,248,0.0,0.0,89,0.00,,,0.00,Wunderground v.1.15,2013-08-20 05:47:00,
2013-08-20 01:54:00,63.2,59.9,30.03,West,260,0.0,0.0,89,0.00,,,0.00,Wunderground v.1.15,2013-08-20 05:54:00,
2013-08-20 02:00:00,62.9,59.9,30.03,WSW,248,0.0,0.0,90,0.00,,,0.00,Wunderground v.1.15,2013-08-20 06:00:00,
2013-08-20 02:07:00,62.7,59.7,30.03,West,260,0.0,0.0,90,0.00,,,0.00,Wunderground v.1.15,2013-08-20 06:07:00,
2013-08-20 02:12:00,62.6,59.6,30.03,West,260,0.0,0.0,90,0.00,,,0.00,Wunderground v.1.15,2013-08-20 06:12:00,
2013-08-20 02:17:00,62.6,59.6,30.02,West,260,0.0,0.0,90,0.00,,,0.00,Wunderground v.1.15,2013-08-20 06:17:00,
2013-08-20 02:22:00,62.7,59.7,30.02,West,260,0.0,0.0,90,0.00,,,0.00,Wunderground v.1.15,2013-08-20 06:22:00,
2013-08-20 02:28:00,62.7,59.7,30.02,West,260,0.0,0.0,90,0.00,,,0.00,Wunderground v.1.15,2013-08-20 06:28:00,
2013-08-20 02:37:00,62.7,60.0,30.03,WSW,256,0.0,0.0,91,0.00,,,0.00,Wunderground v.1.15,2013-08-20 06:37:00,
2013-08-20 02:45:00,62.7,60.0,30.02,West,260,0.0,0.0,91,0.00,,,0.00,Wunderground v.1.15,2013-08-20 06:45:00,
2013-08-20 02:51:00,62.6,59.9,30.02,West,260,0.0,0.0,91,0.00,,,0.00,Wunderground v.1.15,2013-08-20 06:51:00,
2013-08-20 02:57:00,62.6,59.9,30.02,West,260,0.0,0.0,91,0.00,,,0.00,Wunderground v.1.15,2013-08-20 06:57:00,
2013-08-20 03:04:00,62.6,59.9,30.03,West,260,0.0,0.0,91,0.00,,,0.00,Wunderground v.1.15,2013-08-20 07:04:00,
2013-08-20 03:10:00,62.6,59.9,30.03,West,260,0.0,0.0,91,0.00,,,0.00,Wunderground v.1.15,2013-08-20 07:10:00,
2013-08-20 03:17:00,62.4,59.7,30.02,WSW,257,0.0,0.0,91,0.00,,,0.00,Wunderground v.1.15,2013-08-20 07:17:00,
2013-08-20 03:26:00,62.6,59.9,30.02,WSW,247,0.0,0.0,91,0.00,,,0.00,Wunderground v.1.15,2013-08-20 07:26:00,
2013-08-20 03:32:00,62.6,59.9,30.02,West,260,0.0,0.0,91,0.00,,,0.00,Wunderground v.1.15,2013-08-20 07:32:00,
2013-08-20 03:37:00,62.6,59.9,30.02,WSW,254,0.0,0.0,91,0.00,,,0.00,Wunderground v.1.15,2013-08-20 07:37:00,
2013-08-20 03:42:00,62.6,59.9,30.02,WSW,251,0.0,0.0,91,0.00,,,0.00,Wunderground v.1.15,2013-08-20 07:42:00,
2013-08-20 03:48:00,62.6,60.2,30.03,WSW,251,0.0,0.0,92,0.00,,,0.00,Wunderground v.1.15,2013-08-20 07:48:00,
2013-08-20 03:57:00,62.6,60.2,30.03,WSW,256,0.0,0.0,92,0.00,,,0.00,Wunderground v.1.15,2013-08-20 07:57:00,
2013-08-20 04:02:00,62.4,60.0,30.02,West,260,0.0,0.0,92,0.00,,,0.00,Wunderground v.1.15,2013-08-20 08:02:00,
2013-08-20 04:07:00,62.4,60.0,30.02,West,260,0.0,0.0,92,0.00,,,0.00,Wunderground v.1.15,2013-08-20 08:07:00,
2013-08-20 04:12:00,62.4,60.0,30.02,WSW,253,0.0,0.0,92,0.00,,,0.00,Wunderground v.1.15,2013-08-20 08:12:00,
2013-08-20 04:18:00,62.4,60.0,30.03,WSW,258,0.0,0.0,92,0.00,,,0.00,Wunderground v.1.15,2013-08-20 08:18:00,
2013-08-20 04:25:00,62.4,60.0,30.03,West,260,0.0,0.0,92,0.00,,,0.00,Wunderground v.1.15,2013-08-20 08:25:00,
2013-08-20 04:30:00,62.4,60.0,30.02,West,260,0.0,0.0,92,0.00,,,0.00,Wunderground v.1.15,2013-08-20 08:30:00,
2013-08-20 04:37:00,62.4,60.0,30.02,West,260,0.0,0.0,92,0.00,,,0.00,Wunderground v.1.15,2013-08-20 08:37:00,
2013-08-20 04:45:00,62.3,59.9,30.02,WSW,250,0.0,0.0,92,0.00,,,0.00,Wunderground v.1.15,2013-08-20 08:45:00,
2013-08-20 04:51:00,62.3,59.9,30.02,WSW,244,0.0,0.0,92,0.00,,,0.00,Wunderground v.1.15,2013-08-20 08:51:00,
2013-08-20 04:57:00,62.1,59.7,30.02,West,260,0.0,0.0,92,0.00,,,0.00,Wunderground v.1.15,2013-08-20 08:57:00,
2013-08-20 05:05:00,62.1,59.7,30.02,West,260,0.0,0.0,92,0.00,,,0.00,Wunderground v.1.15,2013-08-20 09:05:00,
2013-08-20 05:10:00,62.3,59.9,30.02,WSW,258,0.0,0.0,92,0.00,,,0.00,Wunderground v.1.15,2013-08-20 09:10:00,
2013-08-20 05:16:00,62.3,59.9,30.03,WSW,256,0.0,0.0,92,0.00,,,0.00,Wunderground v.1.15,2013-08-20 09:16:00,
2013-08-20 05:22:00,62.3,59.9,30.03,WSW,257,0.0,0.0,92,0.00,,,0.00,Wunderground v.1.15,2013-08-20 09:22:00,
2013-08-20 05:28:00,62.4,60.0,30.03,West,260,0.0,0.0,92,0.00,,,0.00,Wunderground v.1.15,2013-08-20 09:28:00,
2013-08-20 05:36:00,62.4,60.0,30.03,WSW,254,0.0,0.0,92,0.00,,,0.00,Wunderground v.1.15,2013-08-20 09:36:00,
2013-08-20 05:42:00,62.4,60.0,30.03,West,261,0.0,0.0,92,0.00,,,0.00,Wunderground v.1.15,2013-08-20 09:42:00,
2013-08-20 05:47:00,62.3,59.9,30.04,WSW,253,0.0,0.0,92,0.00,,,0.00,Wunderground v.1.15,2013-08-20 09:47:00,
2013-08-20 05:52:00,62.3,59.9,30.04,West,261,0.0,0.0,92,0.00,,,0.00,Wunderground v.1.15,2013-08-20 09:52:00,
2013-08-20 05:57:00,62.1,59.7,30.04,West,260,0.0,0.0,92,0.00,,,0.00,Wunderground v.1.15,2013-08-20 09:57:00,
2013-08-20 06:02:00,62.1,60.1,30.04,West,260,0.0,0.0,93,0.00,,,0.00,Wunderground v.1.15,2013-08-20 10:02:00,
2013-08-20 06:08:00,62.1,60.1,30.04,WSW,256,0.0,0.0,93,0.00,,,0.00,Wunderground v.1.15,2013-08-20 10:08:00,
2013-08-20 06:21:00,62.0,60.0,30.05,West,261,0.0,0.0,93,0.00,,,0.00,Wunderground v.1.15,2013-08-20 10:21:00,
2013-08-20 06:27:00,62.0,60.0,30.05,West,261,0.0,0.0,93,0.00,,,0.00,Wunderground v.1.15,2013-08-20 10:27:00,
2013-08-20 06:34:00,62.0,60.0,30.05,West,261,0.0,0.0,93,0.00,,,0.00,Wunderground v.1.15,2013-08-20 10:34:00,
2013-08-20 06:40:00,62.0,60.0,30.05,WSW,251,0.0,0.0,93,0.00,,,0.00,Wunderground v.1.15,2013-08-20 10:40:00,
2013-08-20 06:47:00,62.0,60.0,30.06,WSW,250,0.0,0.0,93,0.00,,,0.00,Wunderground v.1.15,2013-08-20 10:47:00,
2013-08-20 06:54:00,62.1,60.1,30.06,West,260,0.0,0.0,93,0.00,,,0.00,Wunderground v.1.15,2013-08-20 10:54:00,
2013-08-20 07:00:00,62.3,60.2,30.07,WSW,258,0.0,0.0,93,0.00,,,0.00,Wunderground v.1.15,2013-08-20 11:00:00,
2013-08-20 07:07:00,62.4,60.3,30.07,WSW,258,0.0,0.0,93,0.00,,,0.00,Wunderground v.1.15,2013-08-20 11:07:00,
2013-08-20 07:14:00,62.4,60.3,30.08,WSW,258,0.0,0.0,93,0.00,,,0.00,Wunderground v.1.15,2013-08-20 11:14:00,
2013-08-20 07:20:00,62.6,60.5,30.08,WSW,258,0.0,0.0,93,0.00,,,0.00,Wunderground v.1.15,2013-08-20 11:20:00,
2013-08-20 07:25:00,62.6,60.5,30.08,WSW,254,0.0,0.0,93,0.00,,,0.00,Wunderground v.1.15,2013-08-20 11:25:00,
2013-08-20 07:31:00,62.7,60.6,30.08,WSW,250,0.0,0.0,93,0.00,,,0.00,Wunderground v.1.15,2013-08-20 11:31:00,
2013-08-20 07:36:00,62.9,60.8,30.08,WSW,243,0.0,0.0,93,0.00,,,0.00,Wunderground v.1.15,2013-08-20 11:36:00,
2013-08-20 07:41:00,63.1,61.0,30.08,WSW,258,0.0,0.0,93,0.00,,,0.00,Wunderground v.1.15,2013-08-20 11:41:00,
2013-08-20 07:46:00,63.2,61.1,30.08,West,261,0.0,0.0,93,0.00,,,0.00,Wunderground v.1.15,2013-08-20 11:46:00,
2013-08-20 07:51:00,63.4,61.3,30.08,West,261,0.0,0.0,93,0.00,,,0.00,Wunderground v.1.15,2013-08-20 11:51:00,
2013-08-20 07:57:00,63.4,61.3,30.08,West,260,0.0,0.0,93,0.00,,,0.00,Wunderground v.1.15,2013-08-20 11:57:00,
2013-08-20 08:06:00,63.5,61.4,30.09,West,260,0.0,0.0,93,0.00,,,0.00,Wunderground v.1.15,2013-08-20 12:06:00,
2013-08-20 08:12:00,63.9,61.8,30.09,WSW,258,0.0,0.0,93,0.00,,,0.00,Wunderground v.1.15,2013-08-20 12:12:00,
2013-08-20 08:17:00,64.0,61.9,30.10,West,260,0.0,0.0,93,0.00,,,0.00,Wunderground v.1.15,2013-08-20 12:17:00,
2013-08-20 08:22:00,64.2,62.1,30.10,West,260,0.0,0.0,93,0.00,,,0.00,Wunderground v.1.15,2013-08-20 12:22:00,
2013-08-20 08:27:00,64.3,62.2,30.10,West,261,0.0,0.0,93,0.00,,,0.00,Wunderground v.1.15,2013-08-20 12:27:00,
2013-08-20 08:35:00,64.5,62.4,30.10,WSW,253,0.0,0.0,93,0.00,,,0.00,Wunderground v.1.15,2013-08-20 12:35:00,
2013-08-20 08:40:00,64.7,62.6,30.10,West,260,0.0,0.0,93,0.00,,,0.00,Wunderground v.1.15,2013-08-20 12:40:00,
2013-08-20 08:46:00,65.0,62.9,30.10,West,261,0.0,0.0,93,0.00,,,0.00,Wunderground v.1.15,2013-08-20 12:46:00,
2013-08-20 08:52:00,65.2,63.1,30.10,West,260,0.0,0.0,93,0.00,,,0.00,Wunderground v.1.15,2013-08-20 12:52:00,
2013-08-20 08:57:00,65.2,63.1,30.10,West,260,0.0,0.0,93,0.00,,,0.00,Wunderground v.1.15,2013-08-20 12:57:00,
2013-08-20 09:02:00,65.6,63.5,30.10,West,260,0.0,0.0,93,0.00,,,0.00,Wunderground v.1.15,2013-08-20 13:02:00,
2013-08-20 09:08:00,65.8,63.7,30.10,West,260,0.0,0.0,93,0.00,,,0.00,Wunderground v.1.15,2013-08-20 13:08:00,
2013-08-20 09:16:00,66.0,63.9,30.11,West,261,0.0,0.0,93,0.00,,,0.00,Wunderground v.1.15,2013-08-20 13:16:00,
2013-08-20 09:22:00,66.1,64.0,30.11,West,261,0.0,0.0,93,0.00,,,0.00,Wunderground v.1.15,2013-08-20 13:22:00,
2013-08-20 09:28:00,66.3,64.2,30.11,West,260,0.0,0.0,93,0.00,,,0.00,Wunderground v.1.15,2013-08-20 13:28:00,
2013-08-20 09:38:00,66.6,64.5,30.11,West,261,0.0,0.0,93,0.00,,,0.00,Wunderground v.1.15,2013-08-20 13:38:00,
2013-08-20 09:45:00,66.8,64.7,30.11,West,260,0.0,0.0,93,0.00,,,0.00,Wunderground v.1.15,2013-08-20 13:45:00,
2013-08-20 09:50:00,66.6,64.5,30.11,West,260,0.0,0.0,93,0.00,,,0.00,Wunderground v.1.15,2013-08-20 13:50:00,
2013-08-20 09:57:00,66.6,64.5,30.11,West,260,0.0,0.0,93,0.00,,,0.00,Wunderground v.1.15,2013-08-20 13:57:00,
2013-08-20 10:05:00,67.1,65.0,30.11,West,260,0.0,0.0,93,0.00,,,0.00,Wunderground v.1.15,2013-08-20 14:05:00,
2013-08-20 10:10:00,67.3,65.2,30.11,West,260,0.0,0.0,93,0.00,,,0.00,Wunderground v.1.15,2013-08-20 14:10:00,
2013-08-20 10:16:00,67.9,65.8,30.12,West,260,0.0,0.0,93,0.00,,,0.00,Wunderground v.1.15,2013-08-20 14:16:00,
2013-08-20 10:22:00,68.4,66.3,30.12,NW,304,0.0,0.0,93,0.00,,,0.00,Wunderground v.1.15,2013-08-20 14:22:00,
2013-08-20 10:28:00,68.8,66.7,30.12,NW,315,0.0,0.0,93,0.00,,,0.00,Wunderground v.1.15,2013-08-20 14:28:00,
2013-08-20 10:35:00,68.8,66.4,30.11,NW,313,0.0,1.0,92,0.00,,,0.00,Wunderground v.1.15,2013-08-20 14:35:00,
2013-08-20 10:41:00,69.3,66.9,30.11,SSE,152,0.0,0.0,92,0.00,,,0.00,Wunderground v.1.15,2013-08-20 14:41:00,
2013-08-20 10:46:00,69.4,66.7,30.11,SSE,154,0.0,1.0,91,0.00,,,0.00,Wunderground v.1.15,2013-08-20 14:46:00,
2013-08-20 10:51:00,69.8,67.1,30.11,SSE,152,0.0,0.0,91,0.00,,,0.00,Wunderground v.1.15,2013-08-20 14:51:00,
2013-08-20 10:56:00,70.1,66.7,30.11,SSE,165,0.0,0.0,89,0.00,,,0.00,Wunderground v.1.15,2013-08-20 14:56:00,
2013-08-20 11:02:00,70.6,66.9,30.11,SSE,161,0.0,1.0,88,0.00,,,0.00,Wunderground v.1.15,2013-08-20 15:02:00,
2013-08-20 11:08:00,70.9,66.8,30.11,SSE,161,0.0,1.0,87,0.00,,,0.00,Wunderground v.1.15,2013-08-20 15:08:00,
2013-08-20 11:16:00,72.1,67.0,30.11,SSE,161,0.0,0.0,84,0.00,,,0.00,Wunderground v.1.15,2013-08-20 15:16:00,
2013-08-20 11:22:00,72.5,66.7,30.11,SSE,165,0.0,1.0,82,0.00,,,0.00,Wunderground v.1.15,2013-08-20 15:22:00,
2013-08-20 11:27:00,73.0,66.1,30.11,NE,56,0.0,1.0,79,0.00,,,0.00,Wunderground v.1.15,2013-08-20 15:27:00,
2013-08-20 11:35:00,73.9,66.6,30.11,South,175,0.0,0.0,78,0.00,,,0.00,Wunderground v.1.15,2013-08-20 15:35:00,
2013-08-20 11:40:00,74.4,67.5,30.11,South,175,0.0,0.0,79,0.00,,,0.00,Wunderground v.1.15,2013-08-20 15:40:00,
2013-08-20 11:47:00,75.4,67.7,30.11,South,184,0.0,0.0,77,0.00,,,0.00,Wunderground v.1.15,2013-08-20 15:47:00,
2013-08-20 11:54:00,76.0,66.3,30.11,North,359,0.0,0.0,72,0.00,,,0.00,Wunderground v.1.15,2013-08-20 15:54:00,
2013-08-20 12:00:00,76.7,66.6,30.10,SSE,167,0.0,0.0,71,0.00,,,0.00,Wunderground v.1.15,2013-08-20 16:00:00,
2013-08-20 12:05:00,77.0,66.0,30.10,SSE,167,0.0,0.0,69,0.00,,,0.00,Wunderground v.1.15,2013-08-20 16:05:00,
2013-08-20 12:11:00,77.6,67.0,30.10,South,175,0.0,0.0,70,0.00,,,0.00,Wunderground v.1.15,2013-08-20 16:11:00,
2013-08-20 12:17:00,77.9,65.6,30.10,NE,55,0.0,2.0,66,0.00,,,0.00,Wunderground v.1.15,2013-08-20 16:17:00,
2013-08-20 12:22:00,78.3,66.0,30.10,SSE,165,0.0,2.0,66,0.00,,,0.00,Wunderground v.1.15,2013-08-20 16:22:00,
2013-08-20 12:27:00,78.6,65.4,30.10,SSE,155,0.0,2.0,64,0.00,,,0.00,Wunderground v.1.15,2013-08-20 16:27:00,
2013-08-20 12:36:00,79.6,65.0,30.10,North,359,0.0,0.0,61,0.00,,,0.00,Wunderground v.1.15,2013-08-20 16:36:00,
2013-08-20 12:42:00,79.8,62.7,30.10,NE,51,0.0,0.0,56,0.00,,,0.00,Wunderground v.1.15,2013-08-20 16:42:00,
2013-08-20 12:48:00,80.1,65.9,30.09,NE,45,0.0,0.0,62,0.00,,,0.00,Wunderground v.1.15,2013-08-20 16:48:00,
2013-08-20 12:55:00,80.7,63.0,30.09,NNE,14,0.0,0.0,55,0.00,,,0.00,Wunderground v.1.15,2013-08-20 16:55:00,
2013-08-20 13:01:00,80.9,64.2,30.09,South,169,0.0,0.0,57,0.00,,,0.00,Wunderground v.1.15,2013-08-20 17:01:00,
2013-08-20 13:08:00,81.6,63.3,30.09,North,7,0.0,0.0,54,0.00,,,0.00,Wunderground v.1.15,2013-08-20 17:08:00,
2013-08-20 13:15:00,82.2,62.8,30.09,ESE,107,0.0,0.0,52,0.00,,,0.00,Wunderground v.1.15,2013-08-20 17:15:00,
2013-08-20 13:21:00,82.6,63.2,30.09,ESE,107,0.0,0.0,52,0.00,,,0.00,Wunderground v.1.15,2013-08-20 17:21:00,
2013-08-20 13:27:00,83.0,63.0,30.09,SE,133,0.0,0.0,51,0.00,,,0.00,Wunderground v.1.15,2013-08-20 17:27:00,
2013-08-20 13:35:00,83.2,64.8,30.09,NE,52,0.0,0.0,54,0.00,,,0.00,Wunderground v.1.15,2013-08-20 17:35:00,
2013-08-20 13:41:00,83.4,63.9,30.09,SSW,193,0.0,0.0,52,0.00,,,0.00,Wunderground v.1.15,2013-08-20 17:41:00,
2013-08-20 13:46:00,83.6,65.2,30.09,North,7,0.0,0.0,54,0.00,,,0.00,Wunderground v.1.15,2013-08-20 17:46:00,
2013-08-20 13:52:00,83.8,64.3,30.09,NNE,13,0.0,0.0,52,0.00,,,0.00,Wunderground v.1.15,2013-08-20 17:52:00,
2013-08-20 13:58:00,84.1,62.9,30.09,NNE,17,0.0,2.0,49,0.00,,,0.00,Wunderground v.1.15,2013-08-20 17:58:00,
2013-08-20 14:07:00,84.7,64.0,30.09,NNE,18,0.0,0.0,50,0.00,,,0.00,Wunderground v.1.15,2013-08-20 18:07:00,
2013-08-20 14:12:00,84.1,62.3,30.09,NE,34,0.0,0.0,48,0.00,,,0.00,Wunderground v.1.15,2013-08-20 18:12:00,
2013-08-20 14:17:00,84.0,63.9,30.08,NNE,18,0.0,0.0,51,0.00,,,0.00,Wunderground v.1.15,2013-08-20 18:17:00,
2013-08-20 14:22:00,83.8,63.2,30.08,NNE,28,0.0,2.0,50,0.00,,,0.00,Wunderground v.1.15,2013-08-20 18:22:00,
2013-08-20 14:27:00,83.4,62.8,30.08,NNE,18,0.0,2.0,50,0.00,,,0.00,Wunderground v.1.15,2013-08-20 18:27:00,
2013-08-20 14:32:00,83.4,62.8,30.08,NNE,18,0.0,1.0,50,0.00,,,0.00,Wunderground v.1.15,2013-08-20 18:32:00,
2013-08-20 14:38:00,84.0,63.9,30.08,NNE,18,0.0,1.0,51,0.00,,,0.00,Wunderground v.1.15,2013-08-20 18:38:00,
2013-08-20 14:45:00,84.0,63.4,30.07,SSE,151,0.0,0.0,50,0.00,,,0.00,Wunderground v.1.15,2013-08-20 18:45:00,
2013-08-20 14:51:00,84.1,63.5,30.07,West,271,0.0,0.0,50,0.00,,,0.00,Wunderground v.1.15,2013-08-20 18:51:00,
2013-08-20 14:56:00,84.1,63.5,30.07,NW,322,0.0,0.0,50,0.00,,,0.00,Wunderground v.1.15,2013-08-20 18:56:00,
2013-08-20 15:02:00,84.3,65.3,30.07,NNW,343,0.0,0.0,53,0.00,,,0.00,Wunderground v.1.15,2013-08-20 19:02:00,
2013-08-20 15:07:00,84.7,65.1,30.07,NNW,343,0.0,0.0,52,0.00,,,0.00,Wunderground v.1.15,2013-08-20 19:07:00,
2013-08-20 15:12:00,84.9,64.2,30.07,NNW,343,0.0,0.0,50,0.00,,,0.00,Wunderground v.1.15,2013-08-20 19:12:00,
2013-08-20 15:17:00,85.3,63.4,30.06,NNW,343,0.0,0.0,48,0.00,,,0.00,Wunderground v.1.15,2013-08-20 19:17:00,
2013-08-20 15:25:00,85.7,64.3,30.06,West,272,0.0,0.0,49,0.00,,,0.00,Wunderground v.1.15,2013-08-20 19:25:00,
2013-08-20 15:31:00,85.3,63.4,30.06,North,0,0.0,0.0,48,0.00,,,0.00,Wunderground v.1.15,2013-08-20 19:31:00,
2013-08-20 15:36:00,85.7,64.9,30.06,North,0,0.0,0.0,50,0.00,,,0.00,Wunderground v.1.15,2013-08-20 19:36:00,
2013-08-20 15:42:00,86.1,62.9,30.06,North,0,0.0,0.0,46,0.00,,,0.00,Wunderground v.1.15,2013-08-20 19:42:00,
2013-08-20 15:47:00,86.5,64.5,30.06,North,0,0.0,1.0,48,0.00,,,0.00,Wunderground v.1.15,2013-08-20 19:47:00,
2013-08-20 15:58:00,86.3,63.1,30.06,North,0,1.0,2.0,46,0.00,,,0.00,Wunderground v.1.15,2013-08-20 19:58:00,
2013-08-20 16:05:00,86.5,61.3,30.05,North,0,0.0,1.0,43,0.00,,,0.00,Wunderground v.1.15,2013-08-20 20:05:00,
2013-08-20 16:10:00,86.7,62.2,30.05,North,0,0.0,0.0,44,0.00,,,0.00,Wunderground v.1.15,2013-08-20 20:10:00,
2013-08-20 16:18:00,87.4,60.8,30.04,NE,52,0.0,0.0,41,0.00,,,0.00,Wunderground v.1.15,2013-08-20 20:18:00,
2013-08-20 16:25:00,87.0,61.1,30.04,North,1,1.0,1.0,42,0.00,,,0.00,Wunderground v.1.15,2013-08-20 20:25:00,
2013-08-20 16:30:00,86.7,61.5,30.04,ENE,76,0.0,1.0,43,0.00,,,0.00,Wunderground v.1.15,2013-08-20 20:30:00,
2013-08-20 16:37:00,86.1,62.3,30.04,NNE,20,0.0,1.0,45,0.00,,,0.00,Wunderground v.1.15,2013-08-20 20:37:00,
2013-08-20 16:44:00,85.3,60.3,30.04,NNE,20,0.0,0.0,43,0.00,,,0.00,Wunderground v.1.15,2013-08-20 20:44:00,
2013-08-20 16:50:00,84.7,62.2,30.04,NNE,20,0.0,0.0,47,0.00,,,0.00,Wunderground v.1.15,2013-08-20 20:50:00,
2013-08-20 16:56:00,84.5,60.8,30.04,NNE,20,0.0,0.0,45,0.00,,,0.00,Wunderground v.1.15,2013-08-20 20:56:00,
2013-08-20 17:02:00,84.1,60.5,30.04,NE,35,0.0,1.0,45,0.00,,,0.00,Wunderground v.1.15,2013-08-20 21:02:00,
2013-08-20 17:08:00,84.0,60.4,30.04,SE,127,0.0,1.0,45,0.00,,,0.00,Wunderground v.1.15,2013-08-20 21:08:00,
2013-08-20 17:17:00,83.6,61.2,30.04,NE,55,0.0,0.0,47,0.00,,,0.00,Wunderground v.1.15,2013-08-20 21:17:00,
2013-08-20 17:27:00,83.4,61.1,30.04,NE,55,0.0,0.0,47,0.00,,,0.00,Wunderground v.1.15,2013-08-20 21:27:00,
2013-08-20 17:37:00,83.2,60.9,30.03,SSE,150,0.0,0.0,47,0.00,,,0.00,Wunderground v.1.15,2013-08-20 21:37:00,
2013-08-20 17:45:00,83.2,61.5,30.04,SSE,150,0.0,0.0,48,0.00,,,0.00,Wunderground v.1.15,2013-08-20 21:45:00,
2013-08-20 17:51:00,83.2,62.1,30.04,SSE,150,0.0,0.0,49,0.00,,,0.00,Wunderground v.1.15,2013-08-20 21:51:00,
2013-08-20 17:56:00,83.0,61.3,30.04,SSE,150,0.0,0.0,48,0.00,,,0.00,Wunderground v.1.15,2013-08-20 21:56:00,
2013-08-20 18:02:00,83.2,61.5,30.04,SSE,150,0.0,0.0,48,0.00,,,0.00,Wunderground v.1.15,2013-08-20 22:02:00,
2013-08-20 18:08:00,83.4,62.2,30.04,SSE,150,0.0,0.0,49,0.00,,,0.00,Wunderground v.1.15,2013-08-20 22:08:00,
2013-08-20 18:16:00,83.4,61.7,30.03,SSE,148,0.0,0.0,48,0.00,,,0.00,Wunderground v.1.15,2013-08-20 22:16:00,
2013-08-20 18:22:00,83.4,62.2,30.03,SSE,150,0.0,0.0,49,0.00,,,0.00,Wunderground v.1.15,2013-08-20 22:22:00,
2013-08-20 18:28:00,83.2,60.9,30.03,SSE,150,0.0,0.0,47,0.00,,,0.00,Wunderground v.1.15,2013-08-20 22:28:00,
2013-08-20 18:36:00,83.0,61.3,30.03,SSE,148,0.0,0.0,48,0.00,,,0.00,Wunderground v.1.15,2013-08-20 22:36:00,
2013-08-20 18:42:00,82.8,61.7,30.03,SSE,148,0.0,0.0,49,0.00,,,0.00,Wunderground v.1.15,2013-08-20 22:42:00,
2013-08-20 18:48:00,82.8,61.7,30.03,SSE,148,0.0,0.0,49,0.00,,,0.00,Wunderground v.1.15,2013-08-20 22:48:00,
2013-08-20 18:55:00,82.8,62.3,30.03,SSE,148,0.0,0.0,50,0.00,,,0.00,Wunderground v.1.15,2013-08-20 22:55:00,
2013-08-20 19:01:00,82.6,62.1,30.03,SSE,148,0.0,0.0,50,0.00,,,0.00,Wunderground v.1.15,2013-08-20 23:01:00,
2013-08-20 19:07:00,82.6,63.7,30.03,SSE,148,0.0,0.0,53,0.00,,,0.00,Wunderground v.1.15,2013-08-20 23:07:00,
2013-08-20 19:15:00,82.4,63.5,30.04,SSE,148,0.0,0.0,53,0.00,,,0.00,Wunderground v.1.15,2013-08-20 23:15:00,
2013-08-20 19:21:00,82.2,63.9,30.04,SSE,148,0.0,0.0,54,0.00,,,0.00,Wunderground v.1.15,2013-08-20 23:21:00,
2013-08-20 19:27:00,81.6,63.9,30.04,SSE,148,0.0,0.0,55,0.00,,,0.00,Wunderground v.1.15,2013-08-20 23:27:00,
2013-08-20 19:32:00,81.1,63.9,30.04,SSE,152,0.0,0.0,56,0.00,,,0.00,Wunderground v.1.15,2013-08-20 23:32:00,
2013-08-20 19:38:00,80.5,63.9,30.04,SSE,152,0.0,0.0,57,0.00,,,0.00,Wunderground v.1.15,2013-08-20 23:38:00,
2013-08-20 19:46:00,79.4,63.8,30.04,SSE,152,0.0,0.0,59,0.00,,,0.00,Wunderground v.1.15,2013-08-20 23:46:00,
2013-08-20 19:52:00,78.6,63.6,30.04,SSE,154,0.0,0.0,60,0.00,,,0.00,Wunderground v.1.15,2013-08-20 23:52:00,
2013-08-20 19:58:00,77.6,63.1,30.04,SSE,152,0.0,0.0,61,0.00,,,0.00,Wunderground v.1.15,2013-08-20 23:58:00,
2013-08-20 20:06:00,76.7,63.6,30.05,SSE,152,0.0,0.0,64,0.00,,,0.00,Wunderground v.1.15,2013-08-21 00:06:00,
2013-08-20 20:12:00,76.5,64.7,30.05,SSE,162,0.0,0.0,67,0.00,,,0.00,Wunderground v.1.15,2013-08-21 00:12:00,
2013-08-20 20:19:00,76.1,65.2,30.05,SSE,152,0.0,0.0,69,0.00,,,0.00,Wunderground v.1.15,2013-08-21 00:19:00,
2013-08-20 20:26:00,75.4,64.9,30.05,SSE,154,0.0,0.0,70,0.00,,,0.00,Wunderground v.1.15,2013-08-21 00:26:00,
2013-08-20 20:32:00,75.1,65.1,30.05,SSE,161,0.0,0.0,71,0.00,,,0.00,Wunderground v.1.15,2013-08-21 00:32:00,
2013-08-20 20:38:00,74.7,65.1,30.05,SSE,154,0.0,0.0,72,0.00,,,0.00,Wunderground v.1.15,2013-08-21 00:38:00,
2013-08-20 20:47:00,74.0,64.8,30.06,SSE,160,0.0,0.0,73,0.00,,,0.00,Wunderground v.1.15,2013-08-21 00:47:00,
2013-08-20 20:57:00,73.5,64.3,30.06,SSE,162,0.0,0.0,73,0.00,,,0.00,Wunderground v.1.15,2013-08-21 00:57:00,
2013-08-20 21:06:00,73.0,64.6,30.06,SSE,161,0.0,0.0,75,0.00,,,0.00,Wunderground v.1.15,2013-08-21 01:06:00,
2013-08-20 21:12:00,72.8,64.4,30.06,SSE,162,0.0,0.0,75,0.00,,,0.00,Wunderground v.1.15,2013-08-21 01:12:00,
2013-08-20 21:17:00,72.7,64.3,30.07,SSE,157,0.0,0.0,75,0.00,,,0.00,Wunderground v.1.15,2013-08-21 01:17:00,
2013-08-20 21:22:00,72.5,64.5,30.07,SSE,167,0.0,0.0,76,0.00,,,0.00,Wunderground v.1.15,2013-08-21 01:22:00,
2013-08-20 21:27:00,72.3,64.3,30.07,SSE,167,0.0,0.0,76,0.00,,,0.00,Wunderground v.1.15,2013-08-21 01:27:00,
2013-08-20 21:32:00,72.1,64.5,30.08,SSE,161,0.0,0.0,77,0.00,,,0.00,Wunderground v.1.15,2013-08-21 01:32:00,
2013-08-20 21:38:00,72.0,64.4,30.08,SSE,154,0.0,0.0,77,0.00,,,0.00,Wunderground v.1.15,2013-08-21 01:38:00,
2013-08-20 21:44:00,71.8,64.2,30.08,SSE,161,0.0,0.0,77,0.00,,,0.00,Wunderground v.1.15,2013-08-21 01:44:00,
2013-08-20 21:50:00,71.8,64.2,30.08,SSE,161,0.0,0.0,77,0.00,,,0.00,Wunderground v.1.15,2013-08-21 01:50:00,
2013-08-20 21:57:00,71.6,64.4,30.08,SSE,154,0.0,0.0,78,0.00,,,0.00,Wunderground v.1.15,2013-08-21 01:57:00,
2013-08-20 22:04:00,71.3,64.8,30.08,SSE,161,0.0,0.0,80,0.00,,,0.00,Wunderground v.1.15,2013-08-21 02:04:00,
2013-08-20 22:10:00,71.1,64.6,30.08,SSE,152,0.0,0.0,80,0.00,,,0.00,Wunderground v.1.15,2013-08-21 02:10:00,
2013-08-20 22:18:00,70.8,64.3,30.08,SSE,162,0.0,0.0,80,0.00,,,0.00,Wunderground v.1.15,2013-08-21 02:18:00,
2013-08-20 22:26:00,70.6,64.1,30.08,SSE,165,0.0,0.0,80,0.00,,,0.00,Wunderground v.1.15,2013-08-21 02:26:00,
2013-08-20 22:32:00,70.4,64.3,30.08,SSE,164,0.0,0.0,81,0.00,,,0.00,Wunderground v.1.15,2013-08-21 02:32:00,
2013-08-20 22:37:00,70.3,64.2,30.08,SSE,164,0.0,0.0,81,0.00,,,0.00,Wunderground v.1.15,2013-08-21 02:37:00,
2013-08-20 22:42:00,70.3,64.5,30.08,SSE,164,0.0,0.0,82,0.00,,,0.00,Wunderground v.1.15,2013-08-21 02:42:00,
2013-08-20 22:48:00,70.1,64.3,30.08,SSE,161,0.0,0.0,82,0.00,,,0.00,Wunderground v.1.15,2013-08-21 02:48:00,
2013-08-20 22:57:00,70.1,64.3,30.08,SSE,158,0.0,0.0,82,0.00,,,0.00,Wunderground v.1.15,2013-08-21 02:57:00,
2013-08-20 23:05:00,69.9,64.2,30.08,SSE,160,0.0,0.0,82,0.00,,,0.00,Wunderground v.1.15,2013-08-21 03:05:00,
2013-08-20 23:11:00,69.8,64.1,30.08,SSE,158,0.0,0.0,82,0.00,,,0.00,Wunderground v.1.15,2013-08-21 03:11:00,
2013-08-20 23:17:00,69.6,63.9,30.08,SSE,157,0.0,0.0,82,0.00,,,0.00,Wunderground v.1.15,2013-08-21 03:17:00,
2013-08-20 23:25:00,69.4,64.0,30.08,SSE,158,0.0,0.0,83,0.00,,,0.00,Wunderground v.1.15,2013-08-21 03:25:00,
2013-08-20 23:31:00,69.4,64.0,30.08,SSE,161,0.0,0.0,83,0.00,,,0.00,Wunderground v.1.15,2013-08-21 03:31:00,
2013-08-20 23:36:00,69.4,64.0,30.08,SSE,160,0.0,0.0,83,0.00,,,0.00,Wunderground v.1.15,2013-08-21 03:36:00,
2013-08-20 23:42:00,69.3,63.9,30.08,SSE,161,0.0,0.0,83,0.00,,,0.00,Wunderground v.1.15,2013-08-21 03:42:00,
2013-08-20 23:48:00,69.3,63.9,30.08,SSE,161,0.0,0.0,83,0.00,,,0.00,Wunderground v.1.15,2013-08-21 03:48:00,
2013-08-20 23:55:00,69.1,63.7,30.08,SSE,160,0.0,0.0,83,0.00,,,0.00,Wunderground v.1.15,2013-08-21 03:55:00,